[[{"header":{"parameterUnit":"m.s-1","parameterCategory":1,"la1":30.2991,"la2":30.254,"lo1":-89.0895,"lo2":-89.0444,"dy":0.0017,"dx":0.0017,"nx":28,"ny":28,"refTime":"2023-08-03T03:00:00:Z","depth":0,"parameterNumber":2,"parameterNumberName":"U-component_of_WINDS"},"data":[0,0,0,0,0,0,0,0,0,0,0,0,0,0,0,0,0,0,0,0,0,0,0,0,0,0,0,0,0,0,0,0,0,0,0,0,0,0,0,0,0,0,0,0,0,0,0,0,0,0,0,0,0,0,0,0,0,0,1.026,1.0261,0,1.0338,1.0339,1.034,1.0382,1.0382,1.0382,1.0382,1.0458,1.046,1.0462,0,0,0,0,0,0,0,0,0,0,0,0,0,1.0144,1.0146,1.026,1.0261,1.0262,1.0338,1.0339,1.034,1.0382,1.0382,1.0382,1.0382,1.0458,1.046,1.0462,0,0,0,0,0,0,0,0,0,0,0,0,0,1.0205,1.0147,1.026,1.0292,1.0296,1.0338,1.0339,1.034,1.0382,1.0382,1.0382,1.0382,1.0457,1.046,1.0463,1.0478,0,0,1.0472,1.0473,0,0,0,0,0,0,0,0,1.0202,1.021,1.0287,1.029,1.0294,1.035,1.0326,1.0386,1.0382,1.0349,1.0382,1.0382,1.0422,1.0428,1.0442,1.0481,1.0485,1.0472,1.0474,1.0475,1.0476,0,0,0,0,0,0,0,1.0197,1.0206,1.0291,1.0288,1.0292,1.0301,1.031,1.0338,1.0384,1.0352,1.0355,1.0364,1.0424,1.0439,1.0444,1.0486,1.0472,1.0474,1.0476,1.0477,1.054,1.054,0,0,0,0,0,0,1.0189,1.0203,1.0289,1.0293,1.0248,1.0303,1.0313,1.0332,1.0384,1.0392,1.0364,1.0365,1.0434,1.0441,1.0447,1.0468,1.0475,1.0478,1.0479,1.054,1.054,1.054,0,0,0,0,0,0,1.0186,1.0196,1.0285,1.0249,1.0261,1.0305,1.0326,1.0334,1.0349,1.0393,1.0401,1.0371,1.0435,1.0443,1.047,1.0471,1.0479,1.0482,1.054,1.054,1.054,1.0509,0,0,0,0,0,0,1.0182,1.0195,1.0202,1.0249,1.0263,1.0308,1.0326,1.0335,1.0354,1.0357,1.0401,1.0409,1.0435,1.0465,1.0473,1.0475,1.0484,1.054,1.054,1.054,1.051,1.0508,1.0506,0,0,0,0,0,1.0178,1.019,1.0202,1.0212,1.0273,1.0308,1.0316,1.0347,1.0354,1.0361,1.0389,1.0407,1.0469,1.0468,1.0476,1.048,1.0541,1.054,1.054,1.0511,1.0508,1.0506,0,0,0,0,0,0,1.0141,1.0196,1.0211,1.0238,1.0268,1.0315,1.0325,1.0343,1.0371,1.0373,1.041,1.0419,1.0442,1.0464,1.0461,1.0496,1.0507,1.0508,1.0482,1.0479,1.0477,1.0472,1.0486,0,0,0,0,0,1.0136,1.0161,1.0208,1.0227,1.0241,1.028,1.0297,1.0318,1.035,1.0363,1.0393,1.0423,1.0449,1.0465,1.0492,1.0513,1.0523,1.052,1.0517,1.0515,1.0516,1.0528,1.0527,1.0539,1.0539,1.0539,0,0,1.0126,1.0159,1.0173,1.022,1.0246,1.027,1.0291,1.0315,1.0333,1.0367,1.0394,1.0417,1.0452,1.0476,1.0488,1.0494,1.0515,1.0515,1.0513,1.0515,1.0528,1.0526,1.0525,1.0539,1.0539,1.0539,0,0,1.012,1.0148,1.0167,1.0192,1.0231,1.0257,1.0261,1.0305,1.0322,1.035,1.0375,1.0396,1.0441,1.0465,1.0482,1.0484,1.0501,1.0491,1.048,1.0491,1.049,1.0489,1.0489,1.0489,1.0492,1.0492,1.0492,0,1.0102,1.014,1.0174,1.0197,1.0217,1.0249,1.0267,1.029,1.0335,1.0347,1.0354,1.041,1.0436,1.0465,1.0466,1.0479,1.0484,1.0487,1.0488,1.0487,1.0487,1.0487,1.0487,1.049,1.049,1.0491,1.0491,0,1.0116,1.0142,1.0152,1.0196,1.0216,1.0237,1.0273,1.0289,1.0308,1.0333,1.036,1.0392,1.0426,1.0434,1.0453,1.0466,1.0469,1.0481,1.0492,1.0484,1.0485,1.0485,1.0488,1.0489,1.0489,1.049,0,0,1.009,1.0151,1.0154,1.0174,1.0218,1.0238,1.0259,1.0293,1.0306,1.0335,1.0353,1.039,1.0401,1.0421,1.0443,1.0453,1.0451,1.0464,1.0465,1.046,1.0466,1.0456,1.0456,1.0463,1.0463,1.0463,1.0463,0,1.0089,1.0131,1.0161,1.019,1.0213,1.0243,1.0261,1.029,1.0313,1.0335,1.036,1.0385,1.0399,1.0411,1.0422,1.0449,1.0452,1.0449,1.0479,1.0479,1.0469,1.0456,1.0446,1.0445,1.0463,1.0463,1.0463,0,1.0095,1.0124,1.0156,1.0197,1.0208,1.0224,1.0256,1.0277,1.031,1.0326,1.0348,1.037,1.0392,1.0401,1.0432,1.0429,1.0442,1.0457,1.0458,1.0461,1.0471,1.0459,1.0445,1.0444,1.0464,1.0464,1.0464,0,1.0072,1.0119,1.0144,1.0159,1.0208,1.0219,1.0239,1.0272,1.0289,1.0317,1.0329,1.0358,1.0374,1.0396,1.0425,1.0429,1.0452,1.0463,1.0465,1.0464,1.0468,1.0468,1.0456,1.0477,1.0477,1.0477,1.0477,0,1.0069,1.0087,1.0134,1.0149,1.0169,1.0203,1.0222,1.0244,1.0273,1.0292,1.0319,1.0336,1.0374,1.0395,1.0417,1.0439,1.0446,1.0458,1.0464,1.0456,1.0454,1.0465,1.0466,1.0477,1.0477,1.0477,1.0477,0,1.0047,1.0079,1.0108,1.0151,1.0163,1.0175,1.0212,1.0227,1.0251,1.0275,1.0282,1.032,1.0346,1.0377,1.0413,1.0428,1.0447,1.0456,1.0436,1.044,1.0439,1.0438,1.0434,1.0434,1.0456,1.0455,1.0455,0,1.0043,1.0057,1.0102,1.0117,1.0137,1.0161,1.0179,1.0212,1.023,1.0267,1.0277,1.0305,1.033,1.037,1.04,1.0427,1.0436,1.0433,1.0441,1.0431,1.0436,1.0434,1.0435,1.043,1.043,1.043,1.0429,0,1.0032,1.0047,1.0072,1.0103,1.0124,1.0149,1.0176,1.0186,1.0224,1.0242,1.027,1.0289,1.0326,1.0353,1.0384,1.0404,1.0422,1.0427,1.0428,1.042,1.0408,1.0414,1.043,1.0427,1.0427,1.0427,1.0427,1.0427,1.0018,1.0032,1.0066,1.0093,1.0116,1.014,1.0156,1.0182,1.0206,1.0239,1.0256,1.0283,1.0313,1.0357,1.0376,1.0397,1.0403,1.0406,1.0406,1.0406,1.0403,1.0405,1.0402,1.0402,1.0403,1.0403,1.0403,0,1.0008,1.0031,1.0056,1.0092,1.0113,1.0129,1.0159,1.0175,1.0198,1.0226,1.0249,1.028,1.0306,1.0337,1.0365,1.0376,1.0385,1.0382,1.0381,1.0385,1.0396,1.0392,1.0374,1.0374,1.0374,1.0374,1.0374,1.0374,1.0005,1.0029,1.0048,1.0083,1.0105,1.0132,1.0148,1.0169,1.0191,1.0224,1.0247,1.0267,1.0296,1.0326,1.035,1.0358,1.0367,1.0361,1.0372,1.0382,1.0385,1.0387,1.0383,1.0363,1.0363,1.036,1.0359,1.0359]},{"header":{"parameterUnit":"m.s-1","parameterCategory":1,"la1":30.2991,"la2":30.254,"lo1":-89.0895,"lo2":-89.0444,"dy":0.0017,"dx":0.0017,"nx":28,"ny":28,"refTime":"2023-08-03T03:00:00:Z","depth":0,"parameterNumber":3,"parameterNumberName":"V-component_of_WINDS"},"data":[0,0,0,0,0,0,0,0,0,0,0,0,0,0,0,0,0,0,0,0,0,0,0,0,0,0,0,0,0,0,0,0,0,0,0,0,0,0,0,0,0,0,0,0,0,0,0,0,0,0,0,0,0,0,0,0,0,0,1.5273,1.5273,0,1.5232,1.5232,1.5231,1.5181,1.518,1.5179,1.5178,1.5136,1.5136,1.5136,0,0,0,0,0,0,0,0,0,0,0,0,0,1.5308,1.5307,1.5273,1.5273,1.5272,1.5232,1.5232,1.5231,1.5181,1.518,1.5179,1.5178,1.5137,1.5136,1.5136,0,0,0,0,0,0,0,0,0,0,0,0,0,1.5282,1.5307,1.5273,1.5242,1.5239,1.5232,1.5232,1.5231,1.5181,1.518,1.5179,1.5177,1.5137,1.5136,1.5136,1.5156,0,0,1.5134,1.5134,0,0,0,0,0,0,0,0,1.5284,1.5281,1.5247,1.5245,1.5241,1.521,1.5228,1.5206,1.5181,1.5203,1.5178,1.5177,1.5162,1.5159,1.5154,1.5154,1.5152,1.5134,1.5134,1.5133,1.5133,0,0,0,0,0,0,0,1.5286,1.5282,1.5257,1.5247,1.5243,1.523,1.5225,1.5224,1.519,1.5201,1.5197,1.5193,1.516,1.5155,1.5153,1.5152,1.5134,1.5133,1.5133,1.5133,1.5164,1.5165,0,0,0,0,0,0,1.5292,1.5284,1.5258,1.5256,1.526,1.5231,1.5225,1.5221,1.519,1.5184,1.5194,1.5191,1.5156,1.5154,1.5151,1.5171,1.5133,1.5133,1.5132,1.5163,1.5164,1.5166,0,0,0,0,0,0,1.5293,1.529,1.526,1.5269,1.5264,1.5231,1.5227,1.5221,1.5216,1.5184,1.5178,1.5195,1.5155,1.5152,1.5155,1.5169,1.5133,1.5132,1.5162,1.5163,1.5165,1.5213,0,0,0,0,0,0,1.5294,1.5291,1.5299,1.527,1.5264,1.5265,1.5228,1.5221,1.5215,1.521,1.5184,1.5178,1.5154,1.5156,1.5154,1.5168,1.5132,1.516,1.5162,1.5164,1.521,1.5216,1.5222,0,0,0,0,0,1.5296,1.5314,1.5299,1.5296,1.5273,1.5266,1.5262,1.5234,1.5217,1.5224,1.5203,1.5179,1.5168,1.5157,1.5154,1.5168,1.5159,1.5162,1.5164,1.5208,1.5215,1.5222,0,0,0,0,0,0,1.5347,1.531,1.5293,1.5303,1.5288,1.5257,1.5266,1.5244,1.5233,1.5229,1.5195,1.5189,1.5196,1.5182,1.517,1.5185,1.516,1.5162,1.5194,1.5201,1.5206,1.5209,1.5131,0,0,0,0,0,1.5359,1.5356,1.5324,1.5336,1.533,1.5299,1.5295,1.5274,1.5257,1.5251,1.523,1.5215,1.5207,1.5203,1.5195,1.5208,1.5201,1.5216,1.5222,1.5227,1.5229,1.5233,1.5239,1.5174,1.5174,1.5174,0,0,1.5385,1.5364,1.5365,1.5346,1.5332,1.5329,1.5294,1.5293,1.5291,1.5251,1.5251,1.5236,1.5216,1.5223,1.5226,1.5212,1.5245,1.523,1.5235,1.5234,1.5236,1.5243,1.5248,1.5176,1.5176,1.5175,0,0,1.543,1.5415,1.5422,1.5408,1.5387,1.5366,1.5368,1.534,1.5328,1.5329,1.5298,1.5294,1.5283,1.5269,1.5261,1.5299,1.5276,1.5298,1.5328,1.5332,1.5337,1.5341,1.5354,1.5358,1.53,1.53,1.53,0,1.5464,1.5459,1.5429,1.5429,1.5421,1.5384,1.5391,1.5379,1.5356,1.5351,1.5337,1.532,1.5305,1.5307,1.5316,1.5312,1.5312,1.53,1.5339,1.5343,1.5346,1.5358,1.5362,1.5303,1.5303,1.5302,1.5302,0,1.5502,1.5499,1.5507,1.5485,1.5478,1.5482,1.5452,1.5448,1.5428,1.5409,1.5409,1.5388,1.5374,1.5373,1.5354,1.5373,1.5365,1.5345,1.5319,1.5356,1.5366,1.537,1.5307,1.5306,1.5305,1.5304,0,0,1.5578,1.5538,1.5542,1.5531,1.5504,1.5501,1.5502,1.5488,1.5485,1.5471,1.547,1.5461,1.5441,1.5432,1.5411,1.5415,1.5444,1.5394,1.5393,1.5403,1.5462,1.5476,1.5482,1.5429,1.543,1.543,1.5463,0,1.5617,1.5618,1.5589,1.5597,1.5593,1.5557,1.5558,1.5542,1.5523,1.5517,1.5496,1.549,1.5466,1.5459,1.5462,1.544,1.5455,1.5438,1.5427,1.5427,1.5432,1.5487,1.5502,1.5534,1.5467,1.5467,1.5468,0,1.5663,1.565,1.5658,1.5629,1.5626,1.5628,1.5611,1.5606,1.5586,1.5572,1.5561,1.5536,1.5534,1.551,1.5507,1.5495,1.5489,1.5478,1.5478,1.5476,1.5449,1.5484,1.5544,1.5548,1.5474,1.5473,1.5473,0,1.5716,1.5701,1.5703,1.5694,1.5661,1.5663,1.5649,1.5628,1.5621,1.5607,1.5601,1.5587,1.558,1.5569,1.5541,1.5526,1.554,1.5514,1.5528,1.5528,1.5532,1.5532,1.559,1.553,1.553,1.553,1.553,0,1.5762,1.5768,1.5726,1.5727,1.5732,1.5699,1.5704,1.5687,1.5668,1.5664,1.5633,1.563,1.5594,1.5587,1.5565,1.5564,1.5561,1.5549,1.5543,1.5551,1.5553,1.5546,1.5543,1.5531,1.5531,1.553,1.553,0,1.5822,1.5795,1.5794,1.5762,1.5754,1.5759,1.5732,1.5731,1.571,1.5706,1.5703,1.5671,1.566,1.5631,1.5614,1.5599,1.5604,1.5594,1.5611,1.5607,1.5622,1.562,1.5677,1.5682,1.562,1.5621,1.5621,0,1.5853,1.5856,1.5825,1.582,1.5807,1.58,1.5792,1.576,1.5753,1.5729,1.5731,1.5718,1.5706,1.5691,1.5666,1.5652,1.564,1.5661,1.5637,1.5645,1.5638,1.5638,1.5637,1.5665,1.5666,1.5667,1.5668,0,1.591,1.5896,1.5886,1.5871,1.5862,1.5849,1.5833,1.5831,1.5795,1.5788,1.5777,1.5768,1.5749,1.5736,1.5718,1.5703,1.5679,1.5675,1.5677,1.5685,1.5695,1.5688,1.5623,1.5674,1.5673,1.5673,1.5672,1.5672,1.5955,1.5956,1.5933,1.5923,1.5908,1.5894,1.5891,1.5869,1.586,1.5842,1.5823,1.5814,1.5792,1.5765,1.5751,1.5743,1.573,1.5734,1.5734,1.5735,1.5739,1.5697,1.5739,1.5739,1.5739,1.5739,1.5739,0,1.6009,1.5993,1.5983,1.5963,1.5954,1.5932,1.5914,1.5908,1.59,1.5881,1.587,1.5856,1.5843,1.5816,1.58,1.5798,1.5787,1.5795,1.5794,1.5791,1.5751,1.575,1.5805,1.5805,1.5805,1.5805,1.5805,1.5805,1.6036,1.6036,1.6019,1.6009,1.5993,1.5983,1.5974,1.5961,1.5946,1.5932,1.5921,1.5903,1.588,1.5862,1.5849,1.5841,1.5836,1.5848,1.5837,1.58,1.5794,1.5788,1.5787,1.5848,1.5848,1.5877,1.5877,1.5877]}]]